This demonstration page uses our WeatherBlox Daily Observations layout. Learn more.

Left ArrowRight Arrow

Hourly Observations for February 23, 2015

Temp ( °F °C ) Dew Point ( °F °C ) Humidity (%) Winds ( mph kmh ) Pressure ( in mb ) Visibility ( mi km ) Precip ( " mm )
12:15 am 00:15 Clear 5 -15 -4 -20 66 66 NE 6 9 30.89 1046 10 16 0.00 0.00
12:35 am 00:35 Clear 5 -15 -4 -20 66 66 Calm 30.95 1048 10 16 0.00 0.00
12:55 am 00:55 Clear 5 -15 -4 -20 66 66 Calm 30.95 1048 10 16 0.00 0.00
1:15 am 01:15 Clear 3 -16 -6 -21 66 66 NE 3 6 30.95 1048 10 16 0.00 0.00
1:35 am 01:35 Clear 3 -16 -4 -20 72 72 NE 3 6 30.95 1048 10 16 0.00 0.00
1:55 am 01:55 Clear 3 -16 -6 -21 66 66 NE 3 6 30.95 1048 10 16 0.00 0.00
2:15 am 02:15 Clear 3 -16 -6 -21 66 66 NE 3 6 30.92 1047 10 16 0.00 0.00
2:35 am 02:35 Clear 3 -16 -6 -21 66 66 Calm 30.92 1047 10 16 0.00 0.00
2:55 am 02:55 Clear 3 -16 -6 -21 66 66 Calm 30.92 1047 10 16 0.00 0.00
3:15 am 03:15 Clear 3 -16 -6 -21 66 66 Calm 30.95 1048 10 16 0.00 0.00
3:35 am 03:35 Clear 3 -16 -6 -21 66 66 Calm 30.92 1047 10 16 0.00 0.00
3:55 am 03:55 Clear 3 -16 -6 -21 66 66 Calm 30.92 1047 10 16 0.00 0.00
4:15 am 04:15 Clear 3 -16 -6 -21 66 66 Calm 30.92 1047 10 16 0.00 0.00
4:35 am 04:35 Clear 3 -16 -6 -21 66 66 Calm 30.92 1047 10 16 0.00 0.00
4:55 am 04:55 Clear 3 -16 -6 -21 66 66 Calm 30.92 1047 10 16 0.00 0.00
5:15 am 05:15 Clear 1 -17 -6 -21 71 71 Calm 30.92 1047 10 16 0.00 0.00
5:35 am 05:35 Clear 0 -18 -6 -21 78 78 Calm 30.95 1048 10 16 0.00 0.00
5:55 am 05:55 Clear 1 -17 -6 -21 71 71 Calm 30.92 1047 10 16 0.00 0.00
6:15 am 06:15 Clear 1 -17 -6 -21 71 71 S 3 6 30.92 1047 10 16 0.00 0.00
6:35 am 06:35 Clear 1 -17 -2 -19 85 85 SSW 5 7 30.92 1047 10 16 0.00 0.00
6:55 am 06:55 Clear 1 -17 -4 -20 78 78 SSW 7 11 30.89 1046 10 16 0.00 0.00
7:15 am 07:15 Clear 1 -17 -6 -21 71 71 SSW 7 11 30.92 1047 10 16 0.00 0.00
7:35 am 07:35 Sunny 1 -17 -6 -21 71 71 SSW 6 9 30.89 1046 10 16 0.00 0.00
7:55 am 07:55 Sunny 3 -16 -2 -19 78 78 SSW 8 13 30.92 1047 10 16 0.00 0.00
8:15 am 08:15 Sunny 5 -15 -2 -19 72 72 SSW 12 19 30.86 1045 10 16 0.00 0.00
8:35 am 08:35 Sunny 7 -14 -2 -19 66 66 SW 9 15 30.86 1045 10 16 0.00 0.00
8:55 am 08:55 Sunny 9 -13 0 -18 66 66 SSW 10 17 30.86 1045 10 16 0.00 0.00
9:15 am 09:15 Sunny 10 -12 0 -18 61 61 SW 12 19 30.83 1044 10 16 0.00 0.00
9:35 am 09:35 Sunny 10 -12 0 -18 61 61 SW 9 15 30.83 1044 10 16 0.00 0.00
9:55 am 09:55 Sunny 12 -11 1 -17 62 62 SSW 10 17 30.83 1044 10 16 0.00 0.00
10:15 am 10:15 Sunny 16 -9 0 -18 48 48 SSW 12 19 30.77 1042 10 16 0.00 0.00
10:35 am 10:35 Sunny 16 -9 0 -18 48 48 SSW 13 20 30.77 1042 10 16 0.00 0.00
10:55 am 10:55 Sunny 18 -8 0 -18 45 45 WSW 13 20 30.77 1042 10 16 0.00 0.00
11:15 am 11:15 Sunny 19 -7 0 -18 42 42 WSW 16 26 30.74 1041 10 16 0.00 0.00
11:35 am 11:35 Sunny 19 -7 1 -17 45 45 SW 15 24 30.74 1041 10 16 0.00 0.00
11:55 am 11:55 Sunny 19 -7 3 -16 49 49 WSW 14 22 30.68 1039 10 16 0.00 0.00
12:15 pm 12:15 Sunny 21 -6 3 -16 45 45 WSW 12 19 30.68 1039 10 16 0.00 0.00
12:35 pm 12:35 Sunny 23 -5 3 -16 42 42 SW 13 20 30.65 1038 10 16 0.00 0.00
12:55 pm 12:55 Sunny 25 -4 5 -15 42 42 SSW 13 20 30.62 1037 10 16 0.00 0.00
1:15 pm 13:15 Sunny 25 -4 3 -16 39 39 WSW 14 22 30.59 1036 10 16 0.00 0.00
1:35 pm 13:35 Sunny 25 -4 5 -15 42 42 SW 16 26 30.56 1035 10 16 0.00 0.00
1:55 pm 13:55 Sunny 25 -4 5 -15 42 42 SW 16 26 30.56 1035 10 16 0.00 0.00
2:15 pm 14:15 Sunny 27 -3 3 -16 36 36 WSW 15 24 30.53 1034 10 16 0.00 0.00
2:35 pm 14:35 Sunny 27 -3 5 -15 39 39 WSW 15 24 30.53 1034 10 16 0.00 0.00
2:55 pm 14:55 Sunny 27 -3 5 -15 39 39 SW 18 30 30.50 1033 10 16 0.00 0.00
3:15 pm 15:15 Sunny 27 -3 7 -14 43 43 SW 15 24 30.50 1033 10 16 0.00 0.00
3:35 pm 15:35 Sunny 28 -2 7 -14 40 40 SW 17 28 30.48 1032 10 16 0.00 0.00
3:55 pm 15:55 Sunny 28 -2 7 -14 40 40 SSW 18 30 30.45 1031 10 16 0.00 0.00
4:15 pm 16:15 Sunny 27 -3 7 -14 43 43 SW 17 28 30.48 1032 10 16 0.00 0.00
4:35 pm 16:35 Sunny 27 -3 7 -14 43 43 SW 16 26 30.48 1032 10 16 0.00 0.00
4:55 pm 16:55 Sunny 27 -3 7 -14 43 43 WSW 14 22 30.45 1031 10 16 0.00 0.00
5:15 pm 17:15 Sunny 27 -3 5 -15 39 39 SW 16 26 30.42 1030 10 16 0.00 0.00
5:35 pm 17:35 Sunny 27 -3 7 -14 43 43 SW 20 31 30.42 1030 10 16 0.00 0.00
5:55 pm 17:55 Sunny 25 -4 7 -14 46 46 SW 18 30 30.42 1030 10 16 0.00 0.00
6:15 pm 18:15 Sunny 25 -4 7 -14 46 46 SW 16 26 30.42 1030 10 16 0.00 0.00
6:35 pm 18:35 Clear 23 -5 9 -13 54 54 SW 16 26 30.42 1030 10 16 0.00 0.00
6:55 pm 18:55 Clear 21 -6 9 -13 58 58 SW 14 22 30.42 1030 10 16 0.00 0.00
7:15 pm 19:15 Clear 21 -6 9 -13 58 58 SW 15 24 30.39 1029 10 16 0.00 0.00
7:35 pm 19:35 Clear 21 -6 9 -13 58 58 SW 13 20 30.39 1029 10 16 0.00 0.00
7:55 pm 19:55 Clear 19 -7 9 -13 63 63 SW 14 22 30.42 1030 10 16 0.00 0.00
8:15 pm 20:15 Clear 19 -7 9 -13 63 63 SW 14 22 30.42 1030 10 16 0.00 0.00
8:35 pm 20:35 Clear 19 -7 9 -13 63 63 SW 16 26 30.42 1030 10 16 0.00 0.00
8:55 pm 20:55 Clear 19 -7 9 -13 63 63 SW 16 26 30.39 1029 10 16 0.00 0.00
9:15 pm 21:15 Clear 19 -7 9 -13 63 63 SW 18 30 30.39 1029 10 16 0.00 0.00
9:35 pm 21:35 Clear 18 -8 9 -13 68 68 SW 16 26 30.39 1029 10 16 0.00 0.00
9:55 pm 21:55 Clear 18 -8 10 -12 73 73 SW 17 28 30.39 1029 10 16 0.00 0.00
10:15 pm 22:15 Clear 18 -8 9 -13 68 68 SW 21 33 30.36 1028 10 16 0.00 0.00
10:35 pm 22:35 Clear 18 -8 10 -12 73 73 SW 20 31 30.36 1028 10 16 0.00 0.00
10:55 pm 22:55 Clear 18 -8 9 -13 68 68 SW 20 31 30.36 1028 10 16 0.00 0.00
11:15 pm 23:15 Clear 18 -8 9 -13 68 68 SW 18 30 30.36 1028 10 16 0.00 0.00
11:35 pm 23:35 Clear 18 -8 9 -13 68 68 SW 20 31 30.33 1027 10 16 0.00 0.00
11:55 pm 23:55 Clear 16 -9 9 -13 73 73 SW 16 26 30.30 1026 10 16 0.00 0.00

Powered by AerisWeather